CST,Max TemperatureF,Mean TemperatureF,Min TemperatureF,Max Dew PointF,MeanDew PointF,Min DewpointF,Max Humidity, Mean Humidity, Min Humidity, Max Sea Level PressureIn, Mean Sea Level PressureIn, Min Sea Level PressureIn, Max VisibilityMiles, Mean VisibilityMiles, Min VisibilityMiles, Max Wind SpeedMPH, Mean Wind SpeedMPH, Max Gust SpeedMPH,PrecipitationIn, CloudCover, Events, WindDirDegrees
2011-11-1,77,58,38,36,33,30,76,48,19,29.87,29.78,29.69,10,10,10,15,7,21,0.00,0,,146
2011-11-2,57,43,28,38,33,24,92,68,43,30.47,30.17,29.67,10,8,1,36,22,45,0.03,5,Rain-Snow,344
2011-11-3,55,39,22,27,23,18,85,57,29,30.48,30.35,30.16,10,10,10,15,8,21,0.00,0,,220
2011-11-4,69,52,34,27,24,22,61,40,18,30.14,29.96,29.81,10,10,10,28,17,36,0.00,0,,179
2011-11-5,69,55,40,31,24,21,50,36,22,29.81,29.60,29.44,10,10,10,45,20,55,0.00,1,,198
2011-11-6,59,47,34,28,24,19,70,46,21,29.97,29.85,29.63,10,10,10,21,8,24,0.00,0,,36
2011-11-7,51,41,31,45,37,25,96,75,53,29.98,29.94,29.87,10,10,6,21,8,25,0.03,6,,39
2011-11-8,42,38,33,41,36,31,96,91,85,30.30,30.03,29.87,10,8,2,25,13,30,0.46,7,Rain,358
2011-11-9,52,42,32,30,27,24,89,62,35,30.50,30.42,30.31,10,10,10,18,10,22,0.00,0,,312
2011-11-10,63,46,29,31,25,17,78,47,16,30.43,30.26,30.03,10,10,10,16,8,20,0.00,0,,240
2011-11-11,66,47,28,31,26,23,85,53,20,29.99,29.86,29.65,10,10,10,15,4,18,0.00,0,,220
2011-11-12,77,61,45,28,24,20,49,32,14,29.62,29.54,29.48,10,10,10,25,16,32,0.00,0,,239
2011-11-13,67,60,52,39,32,28,42,34,26,29.60,29.49,29.44,10,10,10,30,19,38,0.00,0,,223
2011-11-14,63,50,36,39,32,27,73,50,27,29.80,29.70,29.55,10,10,10,29,9,36,0.00,0,,207
2011-11-15,64,49,33,31,24,19,82,51,19,29.90,29.80,29.68,10,10,10,14,8,18,0.00,0,,61
2011-11-16,46,35,23,26,18,9,74,49,24,30.45,30.21,29.92,10,10,10,18,10,24,0.00,3,,57
2011-11-17,58,40,22,23,20,17,84,54,24,30.43,30.15,29.84,10,10,10,36,17,46,0.00,0,,206
2011-11-18,74,56,37,30,25,21,59,38,17,29.81,29.63,29.45,10,10,10,25,17,31,0.00,0,,211
2011-11-19,65,49,32,28,25,22,70,45,20,30.04,29.68,29.42,10,10,10,29,15,33,0.00,0,,318
2011-11-20,43,35,26,25,23,21,81,65,49,30.24,30.15,30.08,10,10,10,17,7,20,0.00,1,,44
2011-11-21,41,34,26,38,29,22,92,81,70,30.14,30.05,29.95,10,8,5,15,4,20,T,4,,41
2011-11-22,63,46,28,37,31,26,100,63,25,30.21,30.07,30.00,10,5,0,17,6,21,0.00,2,Fog,243
2011-11-23,72,52,32,32,30,27,78,49,20,30.25,30.15,30.07,10,10,10,15,7,18,0.00,0,,210
2011-11-24,74,55,36,34,29,26,64,41,17,30.05,29.93,29.77,10,10,10,32,16,40,0.00,0,,198
2011-11-25,60,53,46,50,40,25,93,61,28,29.75,29.69,29.63,10,10,6,38,11,48,0.10,5,Rain-Thunderstorm,246
2011-11-26,46,39,31,43,25,14,89,60,31,30.47,30.20,29.80,10,10,8,44,26,54,0.04,4,Rain,349
2011-11-27,54,41,27,20,16,13,58,40,22,30.49,30.35,30.19,10,10,10,15,8,24,0.00,0,,298
2011-11-28,70,50,29,28,25,21,69,44,19,30.19,30.08,29.96,10,10,10,21,5,32,0.00,0,,321
2011-11-29,49,39,28,30,26,21,75,56,37,30.38,30.29,30.22,10,10,10,16,7,21,0.00,1,,293
2011-11-30,70,49,28,29,24,22,78,48,17,30.20,29.87,29.65,10,10,10,32,15,40,0.00,0,,199